STARLINK-34543

Last updated on Tue Aug 26 2025 00:02:05 GMT+0000 (Coordinated Universal Time)

1 64926U 25157Y 25237.24647159 .00024120 00000+0 44011-3 0 9995 2 64926 53.1611 189.0468 0001346 60.8483 299.2660 15.49327140 5842
UTC large
Height (km)
Speed (km/s)
/
Latitude / Longitude
Inclination (degrees)
Orbital Period (minutes)
Azimuth
Elevation
Range (km)
Doppler Factor

Next 0 passes for location: London (51.5072 / 0.1276)

Sorry there are no passes over London.